Location: Dittelspoint
(48.7198°N, 10.7214°E)
Time: 18:54:04
(UTC+00:00)

STARLINK-1233 - Pass Details

Date: 09 April 2020
Orbit: 549 x 551 km, 53.0° (Epoch: 25 May)

Event Time Altitude Azimuth Distance (km) Brightness Sun altitude
Rises 19:48:28 0° 292° (WNW) 2,735 8.7 -17.1°
Reaches altitude 10° 19:50:59 10° 279° (W) 1,837 7.3 -17.4°
Maximum altitude 19:54:24 25° 224° (SW) 1,145 5.3 -17.9°
Enters shadow 19:56:06 19° 188° (S) 1,348 5.3 -18.1°
